This is the latest recevied weather packets stored in our database for station/object KG4ZVW. If no packets are shown the sender has not sent any weather packets the latest 10 day(s).
| Time | Temp. | Humidity | Pressure | Rain* | Wind** | Luminosity | Snow |
|---|---|---|---|---|---|---|---|
| 1777896212 | 21.67° C | 75% | 1015.4 hPa | 0 mm | - | 213 W/m² | - |
| 1777895909 | 21.67° C | 75% | 1015.4 hPa | 0 mm | - | 149 W/m² | - |
| 1777895606 | 21.11° C | 76% | 1015.5 hPa | 0 mm | - | 185 W/m² | - |
| 1777895322 | 21.11° C | 77% | 1015.5 hPa | 0 mm | - | 160 W/m² | - |
| 1777895017 | 21.11° C | 77% | 1015.5 hPa | 0 mm | - | 148 W/m² | - |
| 1777894713 | 20.56° C | 77% | 1015.2 hPa | 0 mm | - | 132 W/m² | - |
| 1777894409 | 20.56° C | 78% | 1015.2 hPa | 0 mm | - | 113 W/m² | - |
| 1777894123 | 20.56° C | 78% | 1015.2 hPa | 0 mm | - | 97 W/m² | - |
| 1777893817 | 20.56° C | 78% | 1015.1 hPa | 0 mm | - | 84 W/m² | - |
| 1777893514 | 20° C | 78% | 1015.1 hPa | 0 mm | - | 67 W/m² | - |
| 1777893208 | 20° C | 78% | 1015.1 hPa | 0 mm | - | 44 W/m² | - |
| 1777892905 | 20° C | 78% | 1015 hPa | 0 mm | - | 32 W/m² | - |
| 1777892605 | 20° C | 78% | 1015 hPa | 0 mm | - | 21 W/m² | - |
| 1777892319 | 20° C | 78% | 1015 hPa | 0 mm | - | 16 W/m² | - |
| 1777892015 | 20° C | 78% | 1014.8 hPa | 0 mm | - | 12 W/m² | - |
| 1777891710 | 20.56° C | 78% | 1014.8 hPa | 0 mm | - | 9 W/m² | - |
| 1777891406 | 20.56° C | 78% | 1014.8 hPa | 0 mm | - | 7 W/m² | - |
| 1777891121 | 20.56° C | 78% | 1014.9 hPa | 0 mm | - | 0 W/m² | - |
| 1777890817 | 20.56° C | 78% | 1014.9 hPa | 0 mm | - | 0 W/m² | - |
| 1777890513 | 20.56° C | 78% | 1014.9 hPa | 0 mm | - | 0 W/m² | - |
| 1777890207 | 20.56° C | 78% | 1014.8 hPa | 0 mm | - | 0 W/m² | - |
| 1777889923 | 20.56° C | 78% | 1014.8 hPa | 0 mm | - | 0 W/m² | - |
| 1777889619 | 20.56° C | 78% | 1014.8 hPa | 0 mm | - | 0 W/m² | - |
| 1777889313 | 20.56° C | 78% | 1014.7 hPa | 0 mm | - | 0 W/m² | - |
| 1777889011 | 20.56° C | 78% | 1014.7 hPa | 0 mm | - | 0 W/m² | - |
* Rain latest hour (hover to see other rain measurements)
** Current wind speed in m/s (hover to see current wind gust speed)